RH
34 39 44 46 42 39 34 25 19 19 10 12 13 8 5 3 3 4 4 5 6 7 8 10 12 12 12 12 13 13 14 15 15
23 35 41 43 46 43 38 36 31 21 20 12 13 13 9 6 4 3 4 4 5 6 7 8 11 12 12 12 12 13 13 14 14
35 29 29 42 50 46 44 38 37 35 26 22 17 14 14 11 8 6 4 4 4 5 6 7 8 10 12 13 13 12 12 13 13
26 33 39 43 45 54 55 52 46 44 39 31 26 22 18 17 13 11 8 6 5 5 5 6 7 8 9 11 12 13 13 13 12
24 18 19 34 41 50 55 61 59 51 47 43 34 30 29 26 22 19 15 10 9 7 5 5 6 6 7 8 9 10 12 11 12
55 36 22 26 34 40 48 63 66 61 53 47 41 37 32 31 32 29 25 21 15 11 9 8 6 6 6 6 7 7 8 9 9
49 42 39 31 30 30 38 50 70 69 65 61 50 43 39 38 36 39 34 31 28 24 18 13 10 9 8 7 7 7 7 7 8
28 40 39 34 30 24 28 38 40 36 41 52 60 56 45 43 43 37 37 36 33 32 29 24 18 13 11 10 9 8 8 8 8
17 22 42 38 29 35 27 25 35 41 32 27 28 45 57 50 49 49 46 39 36 35 34 34 29 21 15 12 11 11 10 10 10
16 18 18 26 26 27 33 40 42 35 30 37 32 29 43 55 59 49 52 53 45 42 39 34 32 32 27 20 16 13 13 13 13
20 20 21 20 19 20 20 37 49 42 52 66 65 61 45 29 35 48 62 66 51 45 50 52 44 38 37 36 31 25 20 17 16
26 26 25 20 41 38 22 29 47 60 60 65 72 72 62 60 46 30 37 64 65 56 66 70 68 55 49 45 45 43 37 27 22
71 60 34 20 19 22 23 20 23 36 56 70 82 77 74 72 67 56 41 31 51 61 71 86 91 80 62 52 52 60 63 51 41
30 33 32 25 27 24 22 24 21 22 30 33 24 53 59 45 54 58 36 19 55 72 68 67 72 87 82 68 78 76 83 68 69
19 15 24 25 24 31 30 26 24 24 23 22 16 15 13 12 11 12 14 14 9 15 88 86 89 88 84 90 94 97 94 79 83
11 9 11 15 20 35 38 33 26 28 29 25 23 22 18 11 10 10 11 11 10 9 8 30 51 99 81 87 76 76 91 97 98
21 13 10 8 10 21 38 47 42 34 32 28 28 25 24 23 17 14 12 11 11 11 10 10 10 9 9 10 23 44 73 91 90
92 89 13 10 10 12 23 39 49 47 41 35 29 28 28 28 26 22 19 15 13 14 20 27 32 32 23 13 11 14 23 51 70
98 98 47 16 16 11 10 19 38 47 50 49 41 32 27 30 28 27 23 20 19 22 24 30 34 34 36 32 26 19 14 14 26
81 80 59 60 35 12 9 10 13 21 29 51 54 46 40 33 28 26 27 25 27 30 35 35 37 36 35 36 36 32 29 26 23
Wind_Speed
25 22 19 18 18 17 15 14 14 15 14 13 11 11 10 11 13 13 13 13 13 12 11 10 9 8 8 8 8 8 9 10 10
26 25 21 20 20 19 19 17 16 15 17 16 15 12 12 11 12 14 15 15 15 15 14 14 13 12 11 11 11 12 12 12 12
20 24 26 24 21 20 20 20 20 19 18 19 17 16 15 13 13 14 15 15 16 17 18 17 17 16 16 15 15 15 15 15 16
21 23 24 24 24 23 23 22 22 21 21 21 20 20 18 17 15 17 16 16 17 18 19 20 21 21 20 20 19 19 18 18 17
25 25 25 24 25 25 25 25 25 24 24 23 22 21 22 23 20 22 19 19 19 19 19 20 22 23 24 24 23 23 22 22 21
27 26 26 26 25 25 27 27 27 28 27 26 26 25 24 25 25 25 24 23 22 22 21 21 22 23 24 25 26 26 25 26 24
33 30 30 29 28 27 27 29 29 28 28 29 29 28 27 27 27 27 28 27 27 26 24 24 24 24 25 26 26 27 27 27 27
36 35 36 32 30 29 29 29 29 30 31 33 34 32 30 29 28 30 30 30 30 30 29 28 27 27 27 28 28 28 28 27 28
42 41 37 35 33 32 32 32 31 30 28 29 31 35 36 35 34 33 33 32 32 32 32 31 30 29 29 30 30 29 29 29 29
46 44 43 41 38 37 35 34 32 32 31 30 30 30 33 37 37 36 36 37 36 34 32 34 34 33 32 31 32 31 31 31 31
48 48 47 46 44 42 41 38 37 36 34 34 33 31 32 33 35 38 39 39 39 38 37 37 37 37 36 34 34 34 33 33 34
51 52 52 51 44 44 43 43 41 39 39 38 37 35 34 33 35 36 38 39 42 42 40 43 42 39 38 37 37 37 37 37 37
40 47 53 54 51 50 45 46 47 44 43 40 40 39 36 35 34 34 32 34 42 44 45 41 41 42 41 41 40 40 40 39 39
53 50 51 53 52 51 51 50 49 50 48 47 45 45 43 42 42 40 37 36 34 36 39 39 39 40 43 43 44 46 45 43 41
60 58 55 53 53 53 52 53 54 52 51 52 51 48 49 48 46 46 44 43 42 38 36 35 34 37 41 44 42 39 42 49 45
63 62 59 56 53 53 53 53 54 53 54 54 54 54 51 51 49 47 48 46 44 43 42 40 39 41 44 45 43 44 43 39 40
66 64 62 60 56 52 52 51 52 53 55 56 56 53 52 51 50 51 48 47 48 47 44 44 42 42 45 47 47 45 43 43 39
46 47 64 59 55 52 51 51 52 52 53 55 57 56 53 51 50 51 50 48 48 48 48 48 48 48 49 49 48 48 48 46 50
45 48 53 53 52 51 50 50 50 50 51 53 53 55 55 52 51 49 49 49 49 49 52 52 54 55 51 50 51 52 52 52 52
56 51 53 47 49 47 48 48 47 48 49 51 51 52 53 53 53 51 48 50 51 53 54 53 55 55 53 51 52 53 55 56 54
Wind_Direction
259 262 264 269 273 277 282 291 278 267 268 265 274 282 281 278 272 265 263 263 265 266 268 273 279 285 293 299 305 312 320 323 330
260 258 258 259 262 265 271 277 286 288 271 266 264 266 271 274 277 276 271 268 266 265 267 272 277 281 284 289 296 301 307 312 316
261 258 255 255 257 258 261 265 272 278 282 273 267 266 267 269 272 274 273 272 272 272 270 269 273 277 282 286 290 294 298 302 305
265 264 260 255 254 254 257 259 263 268 272 279 277 269 267 266 269 271 273 275 274 274 275 277 277 277 278 281 285 288 291 293 294
266 269 267 263 259 255 253 255 253 256 261 266 272 277 274 269 266 270 270 272 275 275 274 275 277 278 280 281 284 286 288 290 291
266 268 269 268 264 259 258 254 253 251 251 255 260 268 272 275 270 265 268 270 272 273 275 277 278 278 279 281 281 283 286 287 290
267 268 265 265 268 263 257 256 253 252 253 256 256 257 262 267 271 269 268 265 267 271 273 273 275 277 278 279 280 281 283 287 289
261 263 262 262 263 265 263 259 256 255 255 257 256 255 254 256 259 267 267 266 267 267 269 271 273 274 276 277 279 282 284 286 289
257 259 262 260 262 262 264 260 255 254 255 258 258 252 252 253 255 257 260 263 266 268 269 270 271 272 275 278 281 282 284 285 286
254 255 257 259 262 261 261 259 256 258 261 259 257 256 252 250 254 253 259 264 263 265 269 270 271 271 272 275 279 282 284 286 287
257 256 255 255 257 260 261 259 259 259 260 260 257 257 260 258 256 255 257 259 263 264 267 270 272 272 272 274 277 280 282 284 285
257 255 254 252 252 253 256 257 257 260 261 260 260 262 265 264 262 263 260 259 260 263 269 273 269 273 277 279 280 282 284 286 286
246 253 255 256 254 252 252 254 256 257 258 263 267 269 268 271 272 275 277 270 263 262 271 272 273 269 272 273 278 281 284 285 286
253 251 253 255 256 256 254 253 253 255 255 256 261 265 269 270 271 273 281 282 275 269 271 275 274 274 274 276 279 278 276 280 281
251 254 254 253 255 255 256 256 256 255 256 256 258 262 265 266 270 274 278 279 278 279 272 274 274 277 276 277 282 281 276 272 277
249 251 254 255 253 255 258 258 258 259 260 261 260 260 263 265 268 271 272 276 280 281 281 277 272 271 279 278 284 287 292 285 274
247 249 250 254 256 256 256 257 260 261 263 262 262 262 263 265 266 267 269 271 275 279 281 280 282 279 281 280 277 279 281 277 280
245 242 246 251 254 256 257 258 259 260 262 264 265 265 264 263 267 269 270 271 272 275 278 280 283 283 282 284 284 281 277 275 277
228 243 247 247 252 255 260 260 260 261 262 264 266 267 268 266 263 265 268 270 271 274 275 278 280 281 283 282 280 279 277 274 273
239 253 245 246 250 253 257 261 263 264 264 263 263 265 268 270 269 265 263 264 267 269 273 275 277 280 282 280 277 274 274 274 272